TimeEDT,TemperatureF,Dew PointF,Humidity,Sea Level PressureIn,VisibilityMPH,Wind Direction,Wind SpeedMPH,Gust SpeedMPH,PrecipitationIn,Events,Conditions,WindDirDegrees,DateUTC
12:14 AM,50.0,46.4,87,29.62,10.0,SSE,5.8,-,N/A,,Scattered Clouds,150,2012-10-17 04:14:00
12:34 AM,48.2,46.4,93,29.60,10.0,SE,9.2,-,N/A,,Overcast,140,2012-10-17 04:34:00
12:55 AM,48.2,46.4,93,29.60,10.0,SE,9.2,-,N/A,,Scattered Clouds,140,2012-10-17 04:55:00
1:14 AM,48.2,46.4,93,29.60,10.0,ESE,4.6,-,N/A,,Scattered Clouds,120,2012-10-17 05:14:00
1:35 AM,48.2,44.6,87,29.60,10.0,ESE,5.8,-,N/A,,Scattered Clouds,120,2012-10-17 05:35:00
1:55 AM,46.4,44.6,93,29.60,10.0,East,3.5,-,N/A,,Scattered Clouds,100,2012-10-17 05:55:00
2:14 AM,46.4,44.6,93,29.60,10.0,East,4.6,-,N/A,,Mostly Cloudy,100,2012-10-17 06:14:00
2:35 AM,44.6,42.8,93,29.60,10.0,ESE,6.9,-,N/A,,Scattered Clouds,110,2012-10-17 06:35:00
2:55 AM,44.6,42.8,93,29.60,10.0,ESE,5.8,-,N/A,,Scattered Clouds,110,2012-10-17 06:55:00
3:14 AM,44.6,42.8,93,29.59,10.0,ESE,6.9,-,N/A,,Overcast,120,2012-10-17 07:14:00
3:35 AM,44.6,42.8,93,29.58,10.0,ESE,6.9,-,N/A,,Overcast,110,2012-10-17 07:35:00
3:55 AM,44.6,42.8,93,29.57,10.0,ESE,6.9,-,N/A,,Overcast,110,2012-10-17 07:55:00
4:14 AM,44.6,42.8,93,29.56,10.0,ESE,8.1,-,N/A,,Mostly Cloudy,120,2012-10-17 08:14:00
4:35 AM,46.4,42.8,87,29.55,10.0,ESE,11.5,-,N/A,,Mostly Cloudy,120,2012-10-17 08:35:00
4:54 AM,44.6,42.8,93,29.55,10.0,ESE,8.1,-,N/A,,Scattered Clouds,120,2012-10-17 08:54:00
5:15 AM,44.6,42.8,93,29.56,10.0,ESE,5.8,-,N/A,,Clear,110,2012-10-17 09:15:00
5:35 AM,44.6,42.8,93,29.55,10.0,ESE,6.9,-,N/A,,Clear,110,2012-10-17 09:35:00
5:54 AM,46.4,42.8,87,29.55,10.0,East,6.9,-,N/A,,Mostly Cloudy,90,2012-10-17 09:54:00
6:15 AM,44.6,42.8,93,29.55,10.0,East,5.8,-,N/A,,Scattered Clouds,90,2012-10-17 10:15:00
6:35 AM,44.6,42.8,93,29.55,10.0,East,4.6,-,N/A,,Clear,100,2012-10-17 10:35:00
6:54 AM,44.6,42.8,93,29.55,10.0,ESE,5.8,-,N/A,,Clear,110,2012-10-17 10:54:00
7:15 AM,44.6,42.8,93,29.54,10.0,ESE,8.1,-,N/A,,Clear,110,2012-10-17 11:15:00
7:35 AM,44.6,42.8,93,29.54,10.0,ESE,6.9,-,N/A,,Scattered Clouds,120,2012-10-17 11:35:00
7:54 AM,44.6,42.8,93,29.54,10.0,ESE,6.9,-,N/A,,Mostly Cloudy,110,2012-10-17 11:54:00
8:15 AM,44.6,42.8,93,29.54,10.0,ESE,6.9,-,N/A,,Overcast,110,2012-10-17 12:15:00
8:34 AM,44.6,42.8,93,29.53,10.0,East,6.9,-,N/A,,Mostly Cloudy,100,2012-10-17 12:34:00
8:54 AM,46.4,44.6,93,29.52,10.0,ESE,9.2,-,N/A,,Scattered Clouds,110,2012-10-17 12:54:00
9:15 AM,46.4,44.6,93,29.51,10.0,ESE,10.4,-,N/A,,Scattered Clouds,110,2012-10-17 13:15:00
9:34 AM,48.2,44.6,87,29.51,10.0,ESE,8.1,-,N/A,,Clear,120,2012-10-17 13:34:00
9:55 AM,48.2,46.4,93,29.51,10.0,ESE,9.2,-,N/A,,Clear,120,2012-10-17 13:55:00
10:15 AM,51.8,46.4,82,29.50,10.0,ESE,8.1,-,N/A,,Clear,120,2012-10-17 14:15:00
10:34 AM,53.6,48.2,82,29.51,10.0,SE,6.9,-,N/A,,Clear,130,2012-10-17 14:34:00
10:55 AM,55.4,48.2,77,29.49,10.0,SE,11.5,17.3,N/A,,Clear,130,2012-10-17 14:55:00
11:14 AM,55.4,50.0,82,29.49,10.0,SE,11.5,-,N/A,,Clear,140,2012-10-17 15:14:00
11:35 AM,57.2,50.0,77,29.49,10.0,SSE,11.5,19.6,N/A,,Clear,160,2012-10-17 15:35:00
11:55 AM,60.8,51.8,72,29.47,10.0,SSE,13.8,18.4,N/A,,Clear,150,2012-10-17 15:55:00
12:14 PM,60.8,51.8,72,29.47,10.0,SSE,15.0,20.7,N/A,,Clear,160,2012-10-17 16:14:00
12:35 PM,60.8,51.8,72,29.47,10.0,SSE,13.8,19.6,N/A,,Clear,160,2012-10-17 16:35:00
12:55 PM,62.6,53.6,72,29.48,10.0,South,15.0,20.7,N/A,,Clear,170,2012-10-17 16:55:00
1:14 PM,62.6,51.8,68,29.47,10.0,South,15.0,24.2,N/A,,Clear,170,2012-10-17 17:14:00
1:35 PM,62.6,53.6,72,29.47,10.0,South,13.8,20.7,N/A,,Clear,170,2012-10-17 17:35:00
1:54 PM,64.4,53.6,68,29.46,10.0,South,10.4,23.0,N/A,,Clear,170,2012-10-17 17:54:00
2:14 PM,64.4,53.6,68,29.46,10.0,South,9.2,17.3,N/A,,Clear,180,2012-10-17 18:14:00
2:35 PM,64.4,53.6,68,29.46,10.0,South,16.1,24.2,N/A,,Clear,180,2012-10-17 18:35:00
2:54 PM,64.4,53.6,68,29.46,10.0,South,15.0,19.6,N/A,,Clear,190,2012-10-17 18:54:00
3:15 PM,64.4,53.6,68,29.45,10.0,South,18.4,25.3,N/A,,Clear,180,2012-10-17 19:15:00
3:35 PM,64.4,51.8,64,29.45,10.0,South,12.7,20.7,N/A,,Clear,190,2012-10-17 19:35:00
3:54 PM,64.4,53.6,68,29.45,10.0,South,12.7,-,N/A,,Clear,170,2012-10-17 19:54:00
4:15 PM,64.4,53.6,68,29.45,10.0,South,6.9,-,N/A,,Clear,190,2012-10-17 20:15:00
4:35 PM,64.4,53.6,68,29.45,10.0,SSW,10.4,-,N/A,,Clear,200,2012-10-17 20:35:00
4:54 PM,62.6,53.6,72,29.45,10.0,South,6.9,-,N/A,,Scattered Clouds,180,2012-10-17 20:54:00
5:15 PM,64.4,53.6,68,29.43,10.0,South,6.9,-,N/A,,Scattered Clouds,170,2012-10-17 21:15:00
5:34 PM,62.6,53.6,72,29.43,10.0,SSE,4.6,-,N/A,,Clear,160,2012-10-17 21:34:00
5:54 PM,62.6,53.6,72,29.43,10.0,East,6.9,-,N/A,,Clear,100,2012-10-17 21:54:00
6:15 PM,62.6,53.6,72,29.44,10.0,ESE,6.9,-,N/A,,Mostly Cloudy,110,2012-10-17 22:15:00
6:34 PM,60.8,53.6,77,29.44,10.0,ESE,6.9,-,N/A,,Mostly Cloudy,120,2012-10-17 22:34:00
6:55 PM,59.0,53.6,82,29.44,10.0,SE,3.5,-,N/A,,Mostly Cloudy,130,2012-10-17 22:55:00
7:14 PM,59.0,51.8,77,29.44,10.0,SE,3.5,-,N/A,,Mostly Cloudy,140,2012-10-17 23:14:00
7:34 PM,57.2,53.6,88,29.45,10.0,Calm,Calm,-,N/A,,Overcast,0,2012-10-17 23:34:00
7:55 PM,57.2,51.8,82,29.45,10.0,Calm,Calm,-,N/A,,Overcast,0,2012-10-17 23:55:00
8:14 PM,57.2,53.6,88,29.45,10.0,ESE,3.5,-,N/A,,Overcast,110,2012-10-18 00:14:00
8:35 PM,57.2,53.6,88,29.45,10.0,Calm,Calm,-,N/A,,Mostly Cloudy,0,2012-10-18 00:35:00
8:55 PM,57.2,53.6,88,29.45,10.0,ESE,4.6,-,N/A,,Overcast,110,2012-10-18 00:55:00
9:14 PM,57.2,53.6,88,29.45,10.0,East,4.6,-,N/A,,Overcast,100,2012-10-18 01:14:00
9:35 PM,57.2,53.6,88,29.45,10.0,SE,3.5,-,N/A,,Overcast,130,2012-10-18 01:35:00
9:54 PM,57.2,53.6,88,29.44,10.0,SE,9.2,-,N/A,,Overcast,140,2012-10-18 01:54:00
10:14 PM,59.0,53.6,82,29.43,10.0,SE,5.8,-,N/A,,Overcast,140,2012-10-18 02:14:00
10:35 PM,59.0,53.6,82,29.43,10.0,SSE,5.8,-,N/A,,Overcast,150,2012-10-18 02:35:00
10:54 PM,57.2,53.6,88,29.43,10.0,SE,4.6,-,N/A,,Overcast,130,2012-10-18 02:54:00
11:15 PM,57.2,53.6,88,29.43,10.0,SE,3.5,-,N/A,,Overcast,140,2012-10-18 03:15:00
11:35 PM,57.2,53.6,88,29.42,10.0,SE,3.5,-,N/A,,Overcast,140,2012-10-18 03:35:00
11:54 PM,57.2,53.6,88,29.42,10.0,ESE,4.6,-,N/A,,Overcast,110,2012-10-18 03:54:00